Location: Clanezzo
(45.7500°N, 9.6000°E)
Time: 22:06:14
(UTC+00:00)

STARS - Pass Details

Date: 03 July 2022
Orbit: 620 x 637 km, 98.2° (Epoch: 16 August)

Event Time Altitude Azimuth Distance (km) Brightness Sun altitude
Rises 21:39:33 0° 19° (NNE) 2,931 ? -17.2°
Reaches altitude 10° 21:41:51 10° 26° (NNE) 2,015 ? -17.4°
Maximum altitude 21:46:02 43° 99° (E) 882 ? -17.7°
Enters shadow 21:47:11 35° 138° (SE) 1,009 ? -17.8°
